TimeEDT,TemperatureF,Dew PointF,Humidity,Sea Level PressureIn,VisibilityMPH,Wind Direction,Wind SpeedMPH,Gust SpeedMPH,PrecipitationIn,Events,Conditions,WindDirDegrees,DateUTC
12:00 AM,62.6,60.8,94,29.94,0.4,Calm,Calm,-,N/A,,Clear,0,2013-08-27 04:00:00
12:21 AM,64.4,62.6,94,29.94,0.1,Calm,Calm,-,N/A,,Clear,0,2013-08-27 04:21:00
1:00 AM,62.6,60.8,94,29.96,0.1,NE,2.3,-,N/A,,Mostly Cloudy,50,2013-08-27 05:00:00
1:04 AM,62.6,60.8,94,29.96,0.2,Calm,Calm,-,N/A,,Mostly Cloudy,0,2013-08-27 05:04:00
1:06 AM,62.6,60.8,94,29.96,0.1,Calm,Calm,-,N/A,,Mostly Cloudy,0,2013-08-27 05:06:00
2:00 AM,62,60,90,29.95,0,Calm,Calm,,,,Overcast,,2013-08-27 06:00:00
2:00 AM,62.6,60.8,94,29.95,0.1,Calm,Calm,-,N/A,,Overcast,0,2013-08-27 06:00:00
2:36 AM,62.6,59.0,88,29.94,0.1,Calm,Calm,-,N/A,,Mostly Cloudy,0,2013-08-27 06:36:00
2:46 AM,60.8,59.0,94,29.94,0.1,Calm,Calm,-,N/A,,Overcast,0,2013-08-27 06:46:00
2:50 AM,62.6,59.0,88,29.94,0.1,Calm,Calm,-,N/A,,Mostly Cloudy,0,2013-08-27 06:50:00
2:54 AM,62.6,59.0,88,29.93,0.5,Calm,Calm,-,N/A,,Mostly Cloudy,0,2013-08-27 06:54:00
3:00 AM,62.6,60.8,94,29.93,0.6,Calm,Calm,-,N/A,,Overcast,0,2013-08-27 07:00:00
3:03 AM,62.6,60.8,94,29.93,1.0,Calm,Calm,-,N/A,,Overcast,0,2013-08-27 07:03:00
3:11 AM,62.6,60.8,94,29.93,3.0,Calm,Calm,-,N/A,,Overcast,0,2013-08-27 07:11:00
4:00 AM,64.4,62.6,94,29.91,3.0,Calm,Calm,-,N/A,,Overcast,0,2013-08-27 08:00:00
4:16 AM,64.4,62.6,94,29.91,2.4,Calm,Calm,-,N/A,,Overcast,0,2013-08-27 08:16:00
4:21 AM,64.4,60.8,88,29.92,1.4,Calm,Calm,-,N/A,,Overcast,0,2013-08-27 08:21:00
4:40 AM,64.4,60.8,88,29.93,1.5,SW,4.6,-,N/A,,Overcast,230,2013-08-27 08:40:00
5:00 AM,64.4,60.8,88,29.93,2.5,SSW,4.6,-,N/A,,Scattered Clouds,210,2013-08-27 09:00:00
5:18 AM,62.6,60.8,94,29.93,1.4,Calm,Calm,-,N/A,,Clear,0,2013-08-27 09:18:00
5:38 AM,62.6,60.8,94,29.93,1.0,Calm,Calm,-,N/A,,Clear,0,2013-08-27 09:38:00
5:39 AM,62.6,60.8,94,29.93,0.6,Calm,Calm,-,N/A,,Clear,0,2013-08-27 09:39:00
5:42 AM,62.6,60.8,94,29.93,0.4,Calm,Calm,-,N/A,,Clear,0,2013-08-27 09:42:00
6:00 AM,62.6,60.8,94,29.93,0.2,Calm,Calm,-,N/A,,Clear,0,2013-08-27 10:00:00
6:17 AM,62.6,60.8,94,29.93,0.2,Calm,Calm,-,N/A,,Mostly Cloudy,0,2013-08-27 10:17:00
6:23 AM,62.6,59.0,88,29.93,0.1,Calm,Calm,-,N/A,,Mostly Cloudy,0,2013-08-27 10:23:00
6:35 AM,62.6,59.0,88,29.93,0.1,Calm,Calm,-,N/A,,Clear,0,2013-08-27 10:35:00
6:39 AM,62.6,59.0,88,29.93,0.1,Calm,Calm,-,N/A,,Mostly Cloudy,0,2013-08-27 10:39:00
6:41 AM,62.6,59.0,88,29.93,0.5,Calm,Calm,-,N/A,,Unknown,0,2013-08-27 10:41:00
6:45 AM,62.6,59.0,88,29.93,1.5,South,2.3,-,N/A,,Unknown,190,2013-08-27 10:45:00
6:50 AM,62.6,59.0,88,29.93,1.5,Calm,Calm,-,N/A,,Clear,0,2013-08-27 10:50:00
6:54 AM,60.8,59.0,94,29.92,1.4,Calm,Calm,-,N/A,,Clear,0,2013-08-27 10:54:00
6:59 AM,60.8,59.0,94,29.93,1.0,Calm,Calm,-,N/A,,Clear,0,2013-08-27 10:59:00
7:00 AM,60.8,59.0,94,29.93,0.8,Calm,Calm,-,N/A,,Clear,0,2013-08-27 11:00:00
7:11 AM,60.8,59.0,94,29.93,1.5,Calm,Calm,-,N/A,,Unknown,0,2013-08-27 11:11:00
8:00 AM,66,63,87,29.94,2,Calm,Calm,,,,,,2013-08-27 12:00:00
8:00 AM,66.2,62.6,88,29.94,2.5,Calm,Calm,-,N/A,,Clear,0,2013-08-27 12:00:00
8:02 AM,66.2,62.6,88,29.94,3.5,Calm,Calm,-,N/A,,Clear,0,2013-08-27 12:02:00
9:00 AM,69.8,66.2,88,29.94,8.0,Calm,Calm,-,N/A,,Clear,0,2013-08-27 13:00:00
10:00 AM,77.0,68.0,74,29.93,9.0,Calm,Calm,-,N/A,,Clear,0,2013-08-27 14:00:00
11:00 AM,77.0,68.0,74,29.94,9.0,Calm,Calm,-,N/A,,Clear,0,2013-08-27 15:00:00
12:00 PM,78.8,68.0,69,29.92,9.0,South,2.3,-,N/A,,Clear,170,2013-08-27 16:00:00
1:00 PM,80.6,68.0,65,29.91,9.0,SSE,8.1,-,N/A,,Clear,150,2013-08-27 17:00:00
2:00 PM,81,69,59,29.91,9,South,3.5,,,,,170,2013-08-27 18:00:00
2:00 PM,80.6,69.8,70,29.91,9.0,SSE,4.6,-,N/A,,Clear,150,2013-08-27 18:00:00
3:00 PM,82.4,69.8,66,29.88,9.0,ESE,5.8,-,N/A,,Clear,120,2013-08-27 19:00:00
4:00 PM,82.4,69.8,66,29.87,9.0,ESE,5.8,-,N/A,,Scattered Clouds,110,2013-08-27 20:00:00
4:48 PM,80.6,69.8,70,29.87,9.0,SSE,4.6,-,N/A,Rain,Light Rain,160,2013-08-27 20:48:00
4:50 PM,80.6,69.8,70,29.87,9.0,SSE,5.8,-,N/A,Rain,Rain,150,2013-08-27 20:50:00
4:51 PM,80.6,69.8,70,29.87,7.0,SSE,5.8,-,N/A,Rain,Rain,150,2013-08-27 20:51:00
5:00 PM,78.8,71.6,78,29.86,3.0,East,4.6,-,N/A,Rain,Rain,90,2013-08-27 21:00:00
5:12 PM,77.0,71.6,83,29.87,2.2,North,4.6,-,N/A,Rain,Rain,360,2013-08-27 21:12:00
5:16 PM,75.2,71.6,89,29.87,1.4,NW,4.6,-,N/A,Rain,Heavy Rain,320,2013-08-27 21:16:00
5:38 PM,75.2,68.0,78,29.88,3.0,Calm,Calm,-,N/A,Rain,Rain,0,2013-08-27 21:38:00
5:55 PM,71.6,66.2,83,29.88,1.4,North,6.9,-,N/A,Rain,Heavy Rain,10,2013-08-27 21:55:00
6:00 PM,71.6,66.2,83,29.88,1.4,NNE,4.6,-,N/A,Rain,Heavy Rain,20,2013-08-27 22:00:00
6:04 PM,71.6,66.2,83,29.88,2.5,NNE,5.8,-,N/A,Rain,Rain,20,2013-08-27 22:04:00
6:14 PM,71.6,68.0,88,29.88,9.0,North,3.5,-,N/A,Rain,Light Rain,10,2013-08-27 22:14:00
6:22 PM,71.6,68.0,88,29.89,9.0,NNE,2.3,-,N/A,,Mostly Cloudy,20,2013-08-27 22:22:00
6:25 PM,71.6,68.0,88,29.89,9.0,NNE,2.3,-,N/A,,Scattered Clouds,30,2013-08-27 22:25:00
7:00 PM,73.4,69.8,88,29.88,9.0,ENE,2.3,-,N/A,,Partly Cloudy,60,2013-08-27 23:00:00
8:00 PM,72,69,87,29.89,9,Calm,Calm,,,,,,2013-08-28 00:00:00
8:00 PM,71.6,69.8,94,29.89,9.0,Calm,Calm,-,N/A,,Mostly Cloudy,0,2013-08-28 00:00:00
9:00 PM,71.6,68.0,88,29.90,5.0,Calm,Calm,-,N/A,,Overcast,0,2013-08-28 01:00:00
10:00 PM,71.6,68.0,88,29.91,9.0,Calm,Calm,-,N/A,,Overcast,0,2013-08-28 02:00:00
11:00 PM,69.8,68.0,94,29.90,3.0,Calm,Calm,-,N/A,,Mostly Cloudy,0,2013-08-28 03:00:00
11:55 PM,68.0,66.2,94,29.90,2.1,Calm,Calm,-,N/A,,Mostly Cloudy,0,2013-08-28 03:55:00